7 * 24
多渠道服务支持
STARLINK-11167是美国SpaceX公司于2024年6月19日发射的星链(Starlink)低轨互联网卫星,隶属于全球规模最大的低轨卫星星座计划。星链计划旨在近地轨道部署超4万颗卫星,为全球偏远地区、海洋、航空等场景提供高速低延迟的卫星互联网接入服务,同时可支撑灾害应急通信、军事通信等特殊需求。该卫星继承了星链成熟的卫星制造技术,将进一步扩充星链星座的全球网络覆盖能力,推动卫星互联网的普及应用。
美国
(US)
| 数据来源 | 国际轨道数据 |
| 星历时间: | 2026-09-10T20:55:56+0800 20小时前 查看轨道信息 |
| 半长轴: | 6737.872km |
| 偏心率: | 0.000092 |
| 轨道倾角: | 53.159° |
| 近地点辐角 | 88.216° |
| 升交点赤经 | 359.990° |
| 平近点角 | 271.897° |
| 近地点: | 359.115km |
| 远地点: | 360.355km |
| 周期: | 91.737分钟 |
| 每日圈数: | 15.697074 |